KB1ATL Weather Reports


time (UTC)temp
C
wind
direction
speed
KPH
gust
KPH
rain 1hr
cm
rain 24hr
cm
rain mn
cm
humidity
%
barometer
mb
20260510230034 29 0 0.0 4.8 0.00 0.41 0.41 65 1016.7
20260510224534 29 306 0.0 6.4 0.00 0.41 0.41 63 1016.7
20260510223034 30 255 1.6 9.7 0.00 0.41 0.41 63 1016.6
20260510221545 30 0 3.2 12.9 0.00 0.41 0.41 63 1016.7
20260510220037 30 254 0.0 9.7 0.00 0.41 0.41 62 1016.7
20260510214537 30 214 3.2 11.3 0.00 0.41 0.41 61 1016.7
20260510213035 31 0 1.6 11.3 0.00 0.41 0.41 61 1016.8
20260510211537 31 265 3.2 14.5 0.00 0.41 0.41 61 1016.9
20260510210034 31 319 1.6 12.9 0.00 0.41 0.41 60 1016.9
20260510204539 31 257 1.6 14.5 0.00 0.41 0.41 59 1016.8
20260510203035 31 265 3.2 14.5 0.00 0.41 0.41 57 1016.7
20260510201538 31 294 1.6 12.9 0.00 0.41 0.41 57 1016.6
20260510200105 32 252 4.8 12.9 0.00 0.41 0.41 55 1016.6
20260510194543 32 227 4.8 19.3 0.00 0.41 0.41 55 1016.7
20260510193044 32 0 3.2 17.7 0.00 0.41 0.41 54 1016.6
20260510191541 32 155 3.2 14.5 0.00 0.41 0.41 57 1016.7
20260510190035 32 269 1.6 11.3 0.00 0.41 0.41 59 1016.6
20260510184533 32 0 1.6 16.1 0.00 0.41 0.41 59 1016.7
20260510183044 32 323 1.6 16.1 0.00 0.41 0.41 58 1016.9
20260510181535 33 138 3.2 14.5 0.00 0.41 0.41 56 1017.0
20260510180037 32 152 6.4 17.7 0.00 0.41 0.41 57 1017.3
20260510174539 32 0 1.6 12.9 0.00 0.41 0.41 60 1017.5
20260510173034 32 242 1.6 14.5 0.00 0.41 0.41 58 1017.7
20260510171551 32 214 3.2 11.3 0.00 0.41 0.41 56 1017.8
20260510170033 32 217 3.2 12.9 0.00 0.41 0.41 58 1018.0
20260510164543 32 236 1.6 16.1 0.00 0.41 0.41 58 1018.0
20260510163040 32 107 1.6 8.0 0.00 0.41 0.41 61 1018.0
20260510161535 31 238 0.0 14.5 0.00 0.41 0.41 62 1018.2
20260510160036 31 0 1.6 14.5 0.00 0.41 0.41 68 1018.3
20260510154540 31 311 0.0 12.9 0.00 0.41 0.41 68 1018.3
20260510153039 31 116 3.2 11.3 0.00 0.41 0.41 68 1018.1
20260510151542 30 186 3.2 14.5 0.00 0.41 0.41 69 1018.2
20260510150039 30 259 3.2 11.3 0.00 0.41 0.41 72 1018.2
20260510144534 28 146 1.6 9.7 0.00 0.41 0.41 74 1018.3
20260510143036 28 268 1.6 11.3 0.00 0.41 0.41 76 1018.3
20260510141534 28 161 1.6 14.5 0.00 0.41 0.41 76 1018.2
20260510140034 28 145 1.6 11.3 0.00 0.41 0.41 80 1018.0
20260510134538 27 173 0.0 8.0 0.00 0.41 0.41 82 1018.0
20260510133044 26 126 0.0 8.0 0.00 0.41 0.41 86 1018.0
20260510131535 26 0 0.0 4.8 0.00 0.41 0.41 90 1017.9
20260510130034 25 141 0.0 4.8 0.00 0.41 0.41 92 1017.9
20260510124532 24 0 0.0 4.8 0.00 0.41 0.41 96 1017.9
20260510123032 23 0 0.0 1.6 0.00 0.41 0.41 97 1017.7
20260510121537 23 0 0.0 0.0 0.00 0.41 0.41 97 1017.7
20260510120038 23 0 0.0 0.0 0.00 0.41 0.41 97 1017.5
20260510114536 22 0 0.0 0.0 0.00 0.41 0.41 97 1017.2
20260510113041 22 0 0.0 0.0 0.00 0.41 0.41 96 1017.0
20260510111533 22 0 0.0 0.0 0.00 0.41 0.41 95 1016.8
20260510110033 22 0 0.0 0.0 0.00 0.41 0.41 94 1016.5
20260510104541 22 0 0.0 0.0 0.00 0.41 0.41 94 1016.3
20260510103034 22 0 0.0 0.0 0.00 0.41 0.41 94 1015.9
20260510101534 22 0 0.0 0.0 0.00 0.41 0.41 94 1015.6
20260510100035 22 0 0.0 0.0 0.00 0.41 0.41 94 1015.5
20260510094532 22 0 0.0 0.0 0.00 0.41 0.41 93 1015.5
20260510093034 22 0 0.0 0.0 0.00 0.41 0.41 93 1015.3
20260510091533 22 0 0.0 0.0 0.00 0.41 0.41 93 1015.1
20260510090039 22 0 0.0 0.0 0.00 0.41 0.41 93 1014.9
20260510084535 23 0 0.0 0.0 0.00 0.41 0.41 93 1014.7
20260510083034 23 0 0.0 3.2 0.00 0.41 0.41 93 1014.8
20260510081539 23 0 0.0 0.0 0.00 0.41 0.41 93 1014.9
20260510080032 23 0 0.0 0.0 0.00 0.41 0.41 92 1014.9
20260510074532 23 0 0.0 0.0 0.00 0.41 0.41 92 1014.9
20260510073040 23 0 0.0 0.0 0.00 0.41 0.41 90 1015.1
20260510071534 23 0 0.0 0.0 0.00 0.41 0.41 90 1015.2
20260510070035 23 0 0.0 0.0 0.03 0.41 0.41 89 1015.4
20260510064542 23 0 0.0 0.0 0.25 0.41 0.41 88 1015.3
20260510063039 23 0 0.0 0.0 0.41 0.41 0.41 87 1015.5
20260510061533 23 0 0.0 0.0 0.41 0.41 0.41 85 1015.8
20260510060033 24 0 0.0 0.0 0.38 0.38 0.38 83 1016.3
20260510054534 25 0 0.0 3.2 0.13 0.13 0.13 78 1016.4
20260510053037 25 111 0.0 8.0 0.00 0.00 0.00 75 1016.5
20260510051544 25 108 0.0 3.2 0.00 0.00 0.00 76 1016.4
20260510050043 25 0 0.0 0.0 0.00 0.00 0.00 79 1016.7
20260510044547 25 0 0.0 0.0 0.00 0.00 0.00 78 1016.5
20260510043036 25 0 0.0 0.0 0.00 0.00 0.00 78 1016.6
20260510041534 25 0 0.0 0.0 0.00 0.00 0.00 78 1016.7
20260510040049 25 0 0.0 0.0 0.00 0.00 0.00 77 1016.6
20260510034541 25 0 0.0 0.0 0.00 0.00 0.00 75 1016.3
20260510033045 25 0 0.0 0.0 0.00 0.00 0.00 75 1016.2
20260510031551 26 0 0.0 3.2 0.00 0.00 0.00 74 1016.4
20260510030040 26 0 0.0 0.0 0.00 0.00 0.00 75 1016.2
20260510024538 26 0 0.0 3.2 0.00 0.00 0.00 75 1016.2
20260510023041 26 0 0.0 1.6 0.00 0.00 0.00 75 1016.2
20260510021541 25 0 0.0 0.0 0.00 0.00 0.00 74 1016.1
20260510020040 26 0 0.0 0.0 0.00 0.00 0.00 74 1016.0
20260510014536 26 0 0.0 1.6 0.00 0.00 0.00 74 1015.9
20260510013035 26 0 0.0 3.2 0.00 0.00 0.00 72 1015.7
20260510011541 26 0 0.0 1.6 0.00 0.00 0.00 71 1015.5
20260510010042 27 0 0.0 4.8 0.00 0.00 0.00 70 1015.3
20260510004533 27 0 0.0 3.2 0.00 0.00 0.00 67 1015.1
20260510003047 27 0 0.0 0.0 0.00 0.00 0.00 65 1015.0
20260510001537 27 0 0.0 8.0 0.00 0.00 0.00 62 1014.6
20260510000037 28 238 0.0 11.3 0.00 0.00 0.00 61 1014.5
20260509234536 28 0 0.0 6.4 0.00 0.00 0.00 58 1014.3
20260509233034 29 0 0.0 6.4 0.00 0.00 0.00 55 1014.1
20260509231541 30 0 0.0 6.4 0.00 0.00 0.00 53 1013.9